Location: Guadanolo
(41.9167°N, 12.9333°E)
Time: 04:23:01
(UTC+00:00)

CZ-4C R/B - Pass Details

Date: 16 September 2019
Orbit: 654 x 1348 km, 63.4° (Epoch: 14 October)

Event Time Altitude Azimuth Distance (km) Brightness Sun altitude
Rises 23:07:08 0° 327° (NNW) 3,800 6.1 -45.6°
Reaches altitude 10° 23:09:45 10° 333° (NNW) 2,943 5.5 -45.6°
Enters shadow 23:12:49 27° 348° (NNW) 2,059 4.5 -45.6°
